Weather Roundup
Issued by NWS

Home | Current Version | Previous Version | Text Only | Print | Product List | Glossary On
Versions: 1 2 3 4 5 6 7 8 9 10 11 12 13 14 15 16 17 18 19 20 21 22 23 24 25 26 27 28 29 30 31 32 33 34 35 36 37 38 39 40 41 42 43 44 45 46 47 48 49 50
000
NZUS93 KARX 300610
HRRWXR

CURRENT HOURLY OBSERVATIONS ACROSS
MUCH OF THE UPPER MISSISSIPPI VALLEY
NATIONAL WEATHER SERVICE LA CROSSE WI
100 AM CDT TUE JUN 30 2015


...SOUTHEAST MINNESOTA...


CITY           SKY/WX    TMP DP  RH WIND       PRES   REMARKS
ROCHESTER      CLEAR     59  57  93 NE3       29.86R FOG
ROCHESTER/MAYO FAIR      60  60 100 CALM      29.86R
WINONA         CLOUDY    61  59  94 CALM      29.83F FOG
AUSTIN         CLEAR     61  57  88 SW3       29.85S
ALBERT LEA     CLEAR     64  61  88 CALM      29.85S
DODGE CENTER   CLEAR     61  57  88 W6        29.85S
PRESTON          N/A     57  56  96 CALM      29.86S FOG
OWATONNA       CLEAR     63  57  82 CALM      29.85S
FARIBAULT      CLEAR     61  57  88 CALM      29.85R
$$

...ELSEWHERE IN MINNESOTA...


CITY           SKY/WX    TMP DP  RH WIND       PRES   REMARKS
MINNEAPOLIS    PTCLDY    65  63  93 CALM      29.84S
INTNL FALLS    CLEAR     59  52  77 E9        29.94R
DULUTH         MOCLDY    64  57  78 NE6       29.87R
RED WING       PTCLDY    59  57  94 CALM      29.83S FOG
REDWOOD FALLS  CLEAR     68  64  87 NW8       29.88R
MANKATO        CLEAR     68  63  83 NW6       29.85S
WORTHINGTON    CLOUDY    64  59  82 NW7       29.93R
FAIRMONT       CLEAR     66  59  77 NW8       29.87S
$$

...SOUTHWEST WISCONSIN...


CITY           SKY/WX    TMP DP  RH WIND       PRES   REMARKS
LA CROSSE      CLEAR     62  60  93 NW3       29.82F
PRAIRIE DU CHI PTCLDY    61  60  96 CALM      29.81S FOG
BOSCOBEL       FOG       60  59  96 CALM      29.82S VSB 3/4
LONE ROCK      PTCLDY    60  59  96 CALM      29.82S FOG
PLATTEVILLE    PTCLDY    61  60  98 NW5       29.82R
FORT MC COY    FOG       55  54  97 CALM      29.83S VSB 3/4
CAMP DOUGLAS   FOG       54  54 100 W6        29.81S VSB 1/4
VIROQUA        FAIR      59  59 100 W3        29.83S
WIS DELLS      PTCLDY    58  56  94 SW3       29.81S FOG
$$

...ELSEWHERE IN WISCONSIN...


CITY           SKY/WX    TMP DP  RH WIND       PRES   REMARKS
MILWAUKEE      MOCLDY    63  61  93 CALM      29.77S FOG
MADISON        MOCLDY    62  59  90 NW5       29.80R
GREEN BAY      CLOUDY    64  62  93 CALM      29.76S
EAU CLAIRE     FOG       57  56  96 SW3       29.83R VSB 1/2
BLACK RVR FLS  FOG       52  52 100 CALM      29.81F VSB 1/2
MEDFORD        CLOUDY    58  57  99 NW5       29.83S FOG
WAUSAU         PTCLDY    60  58  92 NW6       29.79S FOG
WIS RAPIDS     CLEAR     58  55  90 NW5       29.81F
MARSHFIELD     PTCLDY    59  55  87 NW7       29.82R FOG
RICE LAKE        N/A     58  57  96 CALM      29.86S FOG
$$

...NORTHEAST IOWA...


CITY           SKY/WX    TMP DP  RH WIND       PRES   REMARKS
DECORAH          N/A    N/A N/A N/A MISG        N/A
MASON CITY     CLEAR     63  58  83 SW6       29.87S
CHARLES CITY   CLEAR     61  61 100 SW3       29.85F
OELWEIN          N/A     61  61 100 SW3       29.84F
$$

...ELSEWHERE IN IOWA...


CITY           SKY/WX    TMP DP  RH WIND       PRES   REMARKS
DES MOINES     CLOUDY    70  63  78 W5        29.86F
IOWA CITY      PTCLDY    62  61  96 W5        29.84F
FORT DODGE     CLEAR     66  61  82 CALM      29.88S
$$

...NORTHERN ILLINOIS...


CITY           SKY/WX    TMP DP  RH WIND       PRES   REMARKS
CHICAGO-OHARE  HVY RAIN  66  64  93 S13       29.78S FOG
CHICAGO-MIDWAY CLOUDY    67  65  93 S7        29.78F FOG
MOLINE         CLOUDY    66  63  90 SW5       29.81F
ROCKFORD       MOCLDY    64  61  90 W5        29.81R
PEORIA         CLOUDY    67  63  87 W3        29.81F
$$

NOTE: "FAIR" INDICATES FEW OR NO CLOUDS BELOW 12,000 FEET WITH NO
SIGNIFICANT WEATHER AND/OR OBSTRUCTIONS TO VISIBILITY. WIND
SPEEDS ARE IN MILES-PER-HOUR.



USA.gov is the U.S. government's official web portal to all federal, state and local government web resources and services.